PST,Max TemperatureF,Mean TemperatureF,Min TemperatureF,Max Dew PointF,MeanDew PointF,Min DewpointF,Max Humidity, Mean Humidity, Min Humidity, Max Sea Level PressureIn, Mean Sea Level PressureIn, Min Sea Level PressureIn, Max VisibilityMiles, Mean VisibilityMiles, Min VisibilityMiles, Max Wind SpeedMPH, Mean Wind SpeedMPH, Max Gust SpeedMPH,PrecipitationIn, CloudCover, Events, WindDirDegrees
2012-11-1,56,50,44,47,43,40,93,76,59,30.04,29.90,29.81,10,10,4,24,9,28,0.08,6,Fog-Rain,191
2012-11-2,54,50,45,45,44,43,100,83,66,30.13,30.09,30.06,10,9,7,10,5,12,0.00,7,,122
2012-11-3,51,47,43,48,45,42,100,92,83,30.16,30.09,30.05,10,8,2,18,8,23,0.19,8,Fog-Rain,177
2012-11-4,57,52,47,50,48,46,93,83,72,30.32,30.28,30.18,10,10,10,13,7,17,0.01,8,Fog-Rain,171
2012-11-5,57,49,41,51,48,40,96,87,77,30.26,30.23,30.17,10,10,10,25,10,32,0.00,6,,205
2012-11-6,55,47,39,50,45,39,100,89,77,30.21,30.03,29.87,10,4,0,17,6,22,0.02,7,Fog-Rain,68
2012-11-7,51,42,33,48,32,22,93,65,37,30.04,29.97,29.87,10,10,5,23,12,28,T,3,,219
2012-11-8,43,36,28,34,29,25,100,77,53,29.96,29.78,29.69,10,6,0,17,7,23,0.26,7,Rain-Snow,40
2012-11-9,32,29,25,31,28,23,100,92,84,29.93,29.83,29.74,10,5,0,12,6,18,0.16,8,Snow,18
2012-11-10,31,26,21,22,20,19,92,78,63,30.22,30.08,29.93,10,10,9,10,5,13,T,5,Snow,295
2012-11-11,32,26,20,28,25,19,92,85,78,30.36,30.30,30.20,10,8,0,10,4,41,T,7,Fog-Snow,147
2012-11-12,35,32,30,34,32,28,100,95,89,30.31,30.25,30.17,3,1,0,16,8,20,0.43,8,Rain-Snow,143
2012-11-13,38,36,34,36,35,34,100,93,85,30.29,30.24,30.16,10,7,1,10,4,13,T,8,Fog,146
2012-11-14,37,35,33,36,34,33,100,96,92,30.37,30.27,30.14,10,1,0,13,6,15,T,8,Fog-Rain,192
2012-11-15,42,38,34,36,34,33,100,90,79,30.36,30.20,30.03,10,6,0,12,7,14,0.00,7,,42
2012-11-16,46,40,34,38,35,32,100,86,71,30.02,29.97,29.91,10,7,0,9,3,10,0.00,7,Fog,68
2012-11-17,50,43,35,44,39,34,100,88,76,29.92,29.73,29.57,10,8,1,26,9,33,0.17,8,Rain,90
2012-11-18,45,39,33,36,33,30,92,77,62,29.93,29.87,29.72,10,10,10,25,11,32,0.01,7,Rain,170
2012-11-19,49,42,34,45,41,34,100,88,76,29.85,29.77,29.68,10,8,4,24,16,35,0.84,8,Rain,168
2012-11-20,50,46,42,46,44,39,100,88,76,29.82,29.74,29.68,10,9,6,26,11,32,0.41,7,Rain,172
2012-11-21,45,39,32,41,35,30,100,81,62,30.19,29.83,29.62,10,9,5,33,16,39,0.08,6,Rain-Snow,211
2012-11-22,41,35,29,31,29,25,100,75,49,30.49,30.40,30.16,10,10,7,18,7,23,0.00,5,,137
2012-11-23,45,39,32,41,34,30,92,77,62,30.38,30.20,30.01,10,10,8,23,8,31,0.18,8,Rain,137
2012-11-24,43,37,31,41,36,31,100,93,85,30.17,30.12,30.02,10,8,0,28,8,35,0.01,7,Fog,233
2012-11-25,39,33,26,34,29,25,100,85,70,30.37,30.26,30.09,10,7,0,8,2,9,0.00,4,Fog,234
2012-11-26,36,31,26,30,27,25,100,88,75,30.36,30.28,30.20,10,5,0,9,5,12,0.00,7,Fog,37
2012-11-27,39,34,29,30,28,27,100,85,70,30.26,30.20,30.12,10,10,10,10,5,13,0.00,7,,33
2012-11-28,36,32,28,34,30,26,92,84,75,30.11,29.94,29.81,10,9,2,13,6,15,0.11,7,Rain,43
2012-11-29,47,39,30,43,35,30,100,88,76,29.90,29.81,29.66,10,4,0,9,4,12,0.06,8,Fog-Rain,85
2012-11-30,50,47,43,45,42,40,100,87,74,29.62,29.58,29.54,10,10,7,22,9,28,0.22,7,Rain,166